Location: Perryvale
(54.4667°N, 113.3833°W)
Time: 23:59:01
(UTC+00:00)

SR - Pass Details

Date: 25 May 2024
Orbit: 580 x 858 km, 66.7° (Epoch: 13 June)

Event Time Altitude Azimuth Distance (km) Brightness Sun altitude
Rises 09:56:40 0° 311° (NW) 2,878 ? -8.2°
Reaches altitude 10° 09:59:20 10° 297° (WNW) 1,940 ? -8.0°
Maximum altitude 10:02:39 22° 246° (WSW) 1,309 ? -7.7°
Drops below altitude 10° 10:05:53 10° 196° (SSW) 1,893 ? -7.5°
Enters shadow 10:06:44 - 190° (S) 2,169 ? -7.4°
